SCP
1 0 0 0 0 0 0 0 0 0 0 0 0 0 0 0 0 0 0 0 0 0 0 0 0 0 0 0 0 0 0 0 0 0 0 0 0 0 0 0 0 0 0 0 0 0 0 0 0
0 0 0 0 0 0 0 0 0 0 0 0 0 0 0 0 0 0 0 0 0 0 0 0 0 0 0 0 0 0 0 0 0 0 0 0 0 0 0 0 0 0 0 0 0 0 0 0 0
0 0 0 0 0 0 0 0 0 0 0 0 0 0 0 0 0 0 0 0 0 0 0 0 0 0 0 0 0 0 0 0 0 0 0 0 0 0 0 0 0 0 0 0 0 0 0 0 0
0 0 0 0 0 0 0 0 0 0 0 0 0 0 0 0 0 0 0 0 0 0 0 0 0 0 0 0 0 0 0 0 0 0 0 0 0 0 0 0 0 0 0 0 0 0 0 0 0
0 0 0 0 0 0 0 0 0 0 0 0 0 0 0 0 0 0 0 0 0 0 0 0 0 0 0 0 0 0 0 0 0 0 0 0 0 0 0 0 0 0 0 0 0 0 0 0 0
0 0 0 0 0 0 0 0 0 0 0 0 0 0 0 0 0 0 0 0 0 0 0 0 0 0 0 0 0 0 0 0 0 0 0 0 0 0 0 0 0 0 0 0 0 0 0 0 0
0 0 0 0 0 0 0 0 0 0 0 0 0 0 0 0 0 0 0 0 0 0 0 0 0 0 0 0 0 0 0 0 0 0 0 0 0 0 0 0 0 0 0 0 0 0 0 0 0
0 0 0 0 0 0 0 0 0 0 0 0 0 0 0 0 0 0 0 0 0 0 0 0 0 0 0 0 0 0 0 0 0 0 0 0 0 0 0 0 0 0 0 0 0 0 0 0 0
0 0 0 0 0 0 0 0 0 0 0 0 0 0 0 0 0 0 0 0 0 0 0 0 0 0 0 0 0 0 0 0 0 0 0 0 0 0 0 0 0 0 0 0 0 0 0 0 0
0 0 0 0 0 0 0 0 0 0 0 0 0 0 0 0 0 0 0 0 0 0 0 0 0 0 0 0 0 0 0 0 0 0 0 0 0 0 0 0 0 0 0 0 0 0 0 0 0
0 0 0 0 0 0 0 0 0 0 0 0 0 0 0 0 0 0 0 0 0 0 0 0 0 0 0 0 0 0 0 0 0 0 0 0 0 0 0 0 0 0 0 0 0 0 0 0 0
0 0 0 0 0 0 0 0 0 0 0 0 0 0 0 0 0 0 0 0 0 0 0 0 0 0 0 0 0 0 0 0 0 0 0 0 0 0 0 0 0 0 0 0 0 0 0 0 0
0 0 0 0 0 0 0 0 0 0 0 0 0 0 0 0 0 0 0 0 0 0 0 0 0 0 0 0 0 0 0 0 0 0 0 0 0 0 0 0 0 0 0 0 0 0 0 0 0
0 0 0 0 0 0 0 0 0 0 0 0 0 0 0 0 0 0 0 0 0 0 0 0 0 0 0 0 0 0 0 0 0 0 0 0 0 0 0 0 0 0 0 0 0 0 0 0 0
0 0 0 0 0 0 0 0 0 0 0 0 0 0 0 0 0 0 0 0 0 0 0 0 0 0 0 0 0 0 0 0 0 0 0 0 0 0 0 0 0 0 0 0 0 0 0 0 0
0 0 0 0 0 0 0 0 0 0 0 0 0 0 0 0 0 0 0 0 0 0 0 0 0 0 0 0 0 0 0 0 0 0 0 0 0 0 0 0 0 0 0 0 0 0 0 0 0
0 0 0 0 0 0 0 0 0 0 0 0 0 0 0 0 0 0 0 0 0 0 0 0 0 0 0 0 0 0 0 0 0 0 0 0 0 0 0 0 0 0 0 0 0 0 0 0 0
0 0 0 0 0 0 0 0 0 0 0 0 0 0 0 0 0 0 0 0 0 0 0 0 0 0 0 0 0 0 0 0 0 0 0 0 0 0 0 0 0 0 0 0 0 0 0 0 0
0 0 0 0 0 0 0 0 0 0 0 0 0 0 0 0 0 0 0 0 0 0 0 0 0 0 0 0 0 0 0 0 0 0 0 0 0 0 0 0 0 0 0 0 0 0 0 0 0
0 0 0 0 0 0 0 0 0 0 0 0 0 0 0 0 0 0 0 0 0 0 0 0 0 0 0 0 0 0 0 0 0 0 0 0 0 0 0 0 0 0 0 0 0 0 0 0 0
0 0 0 0 0 0 0 0 0 0 0 0 0 0 0 0 0 0 0 0 0 0 0 0 0 0 0 0 0 0 0 0 0 0 0 0 0 0 0 0 0 0 0 0 0 0 0 0 0
0 0 0 0 0 0 0 0 0 0 0 0 0 0 0 0 0 0 0 0 0 0 0 0 0 0 0 0 0 0 0 0 0 0 0 0 0 0 0 0 0 0 0 0 0 0 0 0 0
0 0 0 0 0 0 0 0 0 0 0 0 0 0 0 0 0 0 0 0 0 0 0 0 0 0 0 0 0 0 0 0 0 0 0 0 0 0 0 0 0 0 0 0 0 0 0 0 0
0 0 0 0 0 0 0 0 0 0 0 0 0 0 0 0 0 0 0 0 0 0 0 0 0 0 0 0 0 0 0 0 0 0 0 0 0 0 0 0 0 0 0 0 0 0 0 0 0
0 0 0 0 0 0 0 0 0 0 0 0 0 0 0 0 0 0 0 0 0 0 0 0 0 0 0 0 0 0 0 0 0 0 0 0 0 0 0 0 0 0 0 0 0 0 0 0 0
0 0 0 0 0 0 0 0 0 0 0 0 0 0 0 0 0 0 0 0 0 0 0 0 0 0 0 0 0 0 0 0 0 0 0 0 0 0 0 0 0 0 0 0 0 0 0 0 0
0 0 0 0 0 0 0 0 0 0 0 0 0 0 0 0 0 0 0 0 0 1 1 1 0 0 0 0 0 0 0 0 0 0 0 0 0 0 0 0 0 0 0 0 0 0 0 0 0
0 0 0 0 0 0 0 0 0 0 0 0 0 0 0 0 0 0 0 0 1 1 1 1 0 0 0 0 0 0 0 0 0 0 0 0 0 0 0 0 0 0 0 0 0 0 0 0 0
0 0 0 0 0 0 0 0 0 0 0 0 0 0 0 0 0 0 0 0 0 1 1 1 0 0 0 0 0 0 0 0 0 0 0 0 0 0 0 0 0 0 0 0 0 0 0 0 0
0 0 0 0 0 0 0 0 0 0 0 0 0 0 0 0 0 0 0 0 0 0 0 0 0 0 0 0 0 0 0 0 0 0 0 0 0 0 0 0 0 0 0 0 0 0 0 0 0
Wind_Speed
11 8 3 1 5 6 4 3 2 3 3 3 5 6 6 4 2 2 0 3 4 3 2 4 8 9 10 10 10 11 12 12 12 12 12 12 12 12 12 12 13 13 13 13 14 15 15 15 15
7 6 2 3 6 4 3 2 3 3 4 4 6 5 6 5 3 5 2 3 5 4 3 4 8 9 9 10 10 10 11 11 11 11 11 11 11 12 12 12 12 12 13 14 14 15 14 14 14
7 4 2 5 4 3 2 1 4 5 4 3 4 5 5 3 4 3 3 6 5 4 3 4 8 9 9 9 10 10 11 11 11 10 10 11 11 12 12 12 12 12 13 14 15 15 14 14 13
4 1 4 6 3 1 4 4 6 6 4 5 5 5 4 3 3 4 7 7 6 4 3 3 8 8 9 9 9 9 10 10 10 10 10 10 11 11 11 11 12 12 13 14 14 14 14 13 12
2 4 6 4 3 2 3 5 3 4 3 4 4 5 3 3 7 9 8 7 5 4 3 3 7 8 8 8 8 8 9 9 9 9 9 9 10 10 11 11 11 12 12 13 13 13 13 12 12
3 5 5 2 2 3 3 3 4 6 5 4 4 4 2 3 6 7 7 6 4 4 3 3 7 8 7 7 8 8 8 9 9 8 8 9 10 11 11 11 11 11 11 11 12 12 12 11 11
4 4 3 2 2 2 3 3 4 5 5 4 4 5 2 2 4 6 6 5 4 4 3 2 3 4 6 6 7 7 7 8 8 8 8 9 10 10 10 10 10 10 10 10 11 11 11 10 9
3 5 3 1 3 2 4 3 3 6 4 5 4 6 5 5 7 7 6 5 4 3 3 2 2 3 2 2 5 6 7 7 7 7 8 8 9 9 9 8 8 9 9 9 10 10 10 9 8
3 5 2 4 5 3 5 5 3 3 6 3 3 4 6 12 11 8 5 3 2 3 2 2 2 2 2 1 3 4 5 5 5 5 6 6 4 4 4 6 7 8 8 8 8 8 8 7 7
4 4 6 5 5 6 6 6 6 5 4 2 5 7 11 12 10 9 7 6 5 4 2 2 2 2 1 1 2 2 2 3 3 3 3 3 3 2 3 4 5 6 6 6 6 6 6 5 3
4 5 4 3 4 7 7 5 5 8 4 6 9 13 13 11 9 8 8 6 6 5 4 3 3 2 2 1 1 1 1 2 2 2 3 3 2 2 2 1 2 2 3 3 4 4 3 3 2
3 2 4 4 5 7 8 6 5 5 6 7 12 15 13 12 10 10 9 7 5 5 5 4 4 3 2 2 1 1 1 1 1 1 2 2 1 1 1 1 1 1 1 2 2 2 2 2 2
2 1 1 5 7 6 7 5 4 2 4 10 12 13 12 12 9 7 6 6 5 5 5 5 4 4 3 2 1 2 1 1 1 1 1 2 2 1 1 1 1 1 1 1 1 1 1 1 1
1 3 4 5 6 4 6 3 3 3 8 11 12 11 11 11 10 7 6 6 7 7 6 5 5 5 4 3 2 2 2 2 1 1 2 2 2 2 2 1 1 0 1 1 1 1 1 1 1
3 5 5 3 4 3 7 2 3 6 10 10 11 10 9 9 8 9 9 8 8 7 6 6 6 5 5 4 3 2 2 2 2 1 2 2 2 3 2 2 1 1 1 1 1 1 1 1 1
5 5 2 1 3 4 6 4 4 9 11 10 9 9 8 7 8 8 8 7 7 6 6 6 6 6 5 4 3 2 2 2 2 2 2 3 3 3 2 2 2 1 1 1 1 1 1 1 1
4 2 2 2 2 4 4 4 4 9 11 10 9 9 8 7 7 7 8 8 8 8 7 7 6 6 6 4 3 2 2 2 2 2 2 2 3 3 3 2 2 1 1 1 1 1 1 1 1
4 3 2 3 3 4 4 3 4 10 11 10 9 8 8 9 9 7 7 7 7 6 6 6 6 5 5 3 2 1 1 1 1 2 2 3 3 3 3 2 2 2 1 1 1 2 1 1 1
5 4 3 3 3 4 3 3 5 8 8 8 8 9 9 9 6 6 6 6 6 6 6 6 6 5 4 3 2 2 2 1 1 2 2 2 3 3 3 2 2 2 2 2 2 2 2 1 1
4 3 2 2 1 3 1 2 2 7 10 9 10 10 10 8 6 6 7 7 8 8 7 7 6 6 6 4 3 2 2 1 1 1 1 2 2 3 3 3 2 2 2 2 2 2 2 1 1
2 5 5 3 2 3 3 3 2 2 4 5 7 7 8 10 10 9 9 9 8 9 9 8 7 6 6 5 3 2 2 1 1 0 1 1 2 2 2 3 2 2 2 2 3 3 3 2 1
3 5 6 5 4 0 2 2 6 3 3 6 8 8 9 9 9 9 9 9 10 10 8 7 7 7 6 6 5 5 4 3 3 2 1 1 1 2 3 3 3 2 2 2 2 2 2 3 2
5 2 4 4 4 2 1 2 8 1 5 9 10 10 9 8 9 10 11 11 9 9 8 8 7 6 6 6 6 5 4 3 2 1 1 1 1 2 2 3 3 3 2 3 2 3 3 2 2
5 8 7 6 5 1 3 3 7 5 8 6 7 9 8 7 8 9 8 8 7 7 7 7 7 6 6 6 6 6 5 5 3 3 2 2 1 1 2 3 3 3 3 3 3 3 3 3 2
5 7 4 4 3 5 2 3 10 7 6 7 7 7 8 7 7 8 9 9 8 9 9 9 9 7 6 6 6 6 6 5 5 4 4 3 2 2 2 2 2 3 3 3 3 3 3 3 3
5 9 9 6 5 4 1 5 9 5 3 3 3 4 5 6 7 8 9 9 9 10 9 9 9 7 7 7 6 5 5 4 3 4 3 3 3 3 3 3 3 3 4 4 3 3 3 3 4
7 4 7 8 3 1 4 6 8 2 1 1 2 3 4 6 7 7 7 8 8 9 9 10 9 8 7 7 6 5 5 4 4 3 3 2 2 2 2 3 3 3 3 3 3 3 3 3 3
6 9 6 7 7 3 4 4 6 5 4 3 3 3 4 5 5 6 7 8 7 7 7 7 7 7 6 6 5 5 4 5 4 3 4 3 3 3 2 2 3 3 3 3 4 3 3 3 3
4 4 6 5 6 8 4 8 7 8 7 6 5 4 5 5 6 5 5 5 4 5 5 5 5 4 4 5 4 4 4 4 4 3 4 4 3 3 3 3 3 3 3 3 4 4 4 4 3
4 7 8 7 5 5 5 8 4 4 4 4 3 2 3 4 4 4 4 4 4 5 5 5 5 5 5 5 5 4 3 3 3 4 4 3 3 4 4 3 3 3 3 4 4 4 4 5 5
Wind_Direction
146 144 146 120 55 51 37 9 65 73 56 48 76 79 90 68 85 135 167 124 114 112 106 114 113 113 111 109 108 109 108 107 107 108 109 109 111 110 109 110 114 115 116 117 117 116 115 116 117
146 155 160 63 73 59 6 6 72 77 126 120 79 71 71 64 62 102 114 121 110 108 96 111 113 114 112 113 112 110 109 107 107 108 109 110 110 110 110 113 116 116 119 120 119 118 117 118 118
164 186 94 68 78 126 139 107 113 106 107 85 76 61 68 87 114 129 143 123 102 96 92 118 116 115 111 111 111 111 112 110 110 109 110 110 110 110 110 112 115 118 120 119 119 119 118 118 118
159 83 54 63 55 172 158 151 137 121 73 56 80 66 59 78 127 131 126 119 110 99 92 119 121 117 114 113 112 111 112 111 109 109 111 112 113 113 111 112 118 118 118 119 120 119 119 118 118
90 77 57 45 19 41 113 140 130 101 73 67 79 79 47 31 98 117 124 123 121 110 98 111 122 117 114 113 113 112 112 112 112 112 113 116 119 117 114 114 117 121 121 121 120 120 120 120 118
68 68 73 54 27 59 100 119 105 90 92 90 85 86 52 86 112 128 126 120 118 116 104 109 127 124 121 119 118 117 115 115 116 118 120 119 120 119 118 118 118 123 125 124 124 123 122 121 120
105 92 111 127 104 114 153 120 121 118 115 120 112 95 90 128 127 124 114 108 104 103 97 85 104 120 127 126 125 122 118 117 114 115 118 123 124 123 122 122 121 121 125 126 126 125 124 122 120
134 100 94 137 154 173 148 118 125 127 120 126 121 134 168 172 129 112 98 93 98 97 94 92 82 82 92 114 129 128 124 119 117 118 119 122 125 125 124 121 123 122 120 122 123 124 123 120 119
103 80 159 193 176 170 147 129 140 107 119 132 126 148 151 135 128 120 110 100 118 132 109 105 95 86 85 102 133 128 128 123 119 116 119 107 84 89 109 122 128 125 123 123 124 123 121 118 113
98 130 208 196 170 153 152 144 147 119 123 109 88 99 124 137 142 147 155 163 172 177 175 152 140 126 108 121 80 58 71 78 77 70 77 80 83 85 104 116 131 127 119 114 117 122 118 105 97
144 176 203 182 157 136 138 140 133 132 174 187 159 146 146 151 158 166 174 178 184 181 179 171 169 160 145 107 99 70 62 69 73 80 86 85 80 74 71 73 83 84 90 81 84 89 94 104 111
147 206 167 158 141 139 145 139 135 170 204 166 154 150 154 163 174 181 183 186 178 172 184 179 176 170 169 151 125 115 107 101 106 111 111 105 96 84 77 78 74 69 79 92 87 89 93 106 126
116 145 102 122 122 134 126 137 144 179 124 127 139 150 163 175 183 188 184 180 174 182 188 185 178 178 174 162 169 153 154 151 154 140 134 136 134 131 117 110 98 101 109 120 119 117 118 130 142
109 81 80 101 113 127 127 128 116 162 134 138 151 166 176 183 183 181 181 184 188 192 191 182 182 183 171 174 180 176 168 159 157 165 165 160 154 155 153 157 158 174 174 166 157 147 139 152 146
77 71 51 71 106 128 114 110 205 160 145 154 167 177 183 189 187 192 194 192 192 192 187 182 186 180 176 181 187 178 172 163 179 193 182 174 173 170 167 181 197 201 171 155 134 121 117 153 144
54 64 60 273 128 135 132 214 206 156 157 169 178 183 188 196 198 202 195 191 188 183 183 187 187 177 181 182 180 170 170 171 191 198 187 190 187 179 174 189 216 205 158 152 150 140 126 138 137
43 115 212 267 180 151 161 218 191 165 169 178 185 189 191 199 209 207 196 188 184 183 180 180 178 172 178 177 171 172 169 182 196 194 196 201 198 188 179 196 218 185 157 164 174 139 146 154 145
198 193 205 215 222 154 182 227 184 178 180 186 188 191 195 203 212 202 192 184 178 178 175 176 175 171 162 148 139 137 160 207 201 200 206 201 201 192 182 191 196 167 153 155 142 127 122 150 140
166 171 221 234 204 157 195 228 199 184 189 193 194 196 202 213 209 189 183 176 169 170 174 179 176 171 156 149 156 164 194 201 207 217 212 197 194 187 180 183 168 168 171 175 157 138 140 143 117
157 165 229 299 116 141 152 274 219 190 201 200 200 202 203 202 190 190 183 176 179 181 184 185 187 179 176 173 162 161 152 170 190 214 213 211 197 185 187 184 180 176 167 160 163 156 155 157 151
184 180 191 186 61 64 90 334 272 228 208 209 210 204 202 202 195 193 188 189 185 189 188 191 194 190 186 169 136 114 92 70 79 154 218 220 199 193 189 189 185 179 173 183 185 176 172 175 180
228 210 172 153 121 255 133 247 275 231 227 219 215 207 208 209 195 190 190 192 194 196 187 185 188 190 185 169 165 166 171 184 200 189 200 219 197 194 195 194 192 186 179 189 198 180 176 164 181
199 133 127 130 125 90 35 159 279 214 238 235 223 216 214 208 195 191 193 194 194 189 183 182 182 186 182 175 175 172 179 183 169 165 195 224 225 209 205 197 194 197 194 193 184 172 179 178 180
125 74 59 53 74 116 230 171 269 232 224 233 222 214 209 201 192 190 190 181 182 181 180 174 175 186 181 177 175 179 184 180 175 191 212 223 223 229 221 202 198 202 199 198 195 186 183 187 184
98 95 52 16 20 247 233 189 248 249 233 223 217 208 200 190 187 185 183 183 183 182 183 178 178 185 181 179 184 189 190 185 192 201 208 211 216 222 225 210 202 203 203 198 190 187 190 189 192
173 143 155 180 205 258 282 229 255 264 259 243 215 191 181 181 185 188 188 188 186 183 178 174 176 180 179 184 191 190 189 189 198 201 198 204 214 224 216 205 210 211 204 197 185 188 197 191 200
140 165 155 129 142 167 264 277 299 292 283 173 164 162 176 182 182 182 181 186 183 179 177 179 175 174 179 184 183 183 184 186 194 199 198 206 215 225 218 207 211 216 209 199 183 192 203 192 199
140 143 109 122 145 205 265 258 246 250 232 202 187 192 191 177 175 182 185 183 175 174 169 168 173 176 175 174 182 184 183 187 188 186 200 207 212 213 208 209 211 217 213 200 195 197 198 190 201
119 108 111 115 149 155 213 259 229 218 209 195 204 201 185 173 176 181 183 174 157 143 145 156 164 160 165 169 171 174 180 180 178 194 209 211 209 209 218 217 206 208 207 201 197 202 192 191 198
162 164 148 151 192 170 170 257 284 221 201 177 185 179 162 158 163 158 149 136 132 140 146 157 159 172 178 173 167 174 173 172 184 201 211 207 213 217 217 212 212 212 203 196 199 208 199 194 196